Retour au catalogue

STARLINK-11649

ActifCommunicationsVLEO
NORAD 64069·PAYLOAD·🇺🇸 United States

Lancé May 21, 2025 depuis Cape Canaveral Space Force Station

Loading…

Prochains Passages (prochaines 24 heures)

TLE

FraisSource: CelesTrak SupGP

Époque: Sep 14, 2026, 22:30 UTC

1 64069C 25107F   26257.93798611  .00083862  00000+0  65092-3 0  2574
2 64069  43.0010  38.1168 0001704 276.5173 135.6450 15.70812660    16

Suivez STARLINK-11649 en temps réel avec AllMySat

Download on the App Store